| time (UTC) | temp F | wind direction | speed knots | gust knots | rain 1hr in | rain 24hr in | rain mn in | humidity % | barometer mb |
| 20260506143554 | 77 | 114 | 2.6 | 2.6 | 0.00 | 0.00 | 0.00 | 92 | 1006.7 |
| 20260506143052 | 77 | 114 | 0.0 | 0.0 | 0.00 | 0.00 | 0.00 | 93 | 1006.7 |
| 20260506142550 | 77 | 114 | 0.0 | 0.0 | 0.00 | 0.00 | 0.00 | 93 | 1006.7 |
| 20260506142048 | 76 | 103 | 2.6 | 2.6 | 0.00 | 0.00 | 0.00 | 93 | 1006.3 |
| 20260506141545 | 77 | 128 | 5.2 | 5.2 | 0.00 | 0.00 | 0.00 | 93 | 1006.3 |
| 20260506141044 | 77 | 126 | 2.6 | 2.6 | 0.00 | 0.00 | 0.00 | 94 | 1005.7 |
| 20260506140541 | 76 | 118 | 2.6 | 2.6 | 0.00 | 0.00 | 0.00 | 94 | 1006.0 |
| 20260506140038 | 76 | 133 | 0.0 | 0.0 | 0.00 | 0.00 | 0.00 | 94 | 1006.0 |
| 20260506135535 | 76 | 138 | 4.3 | 4.3 | 0.00 | 0.00 | 0.00 | 94 | 1006.0 |
| 20260506135031 | 76 | 101 | 2.6 | 2.6 | 0.00 | 0.00 | 0.00 | 94 | 1005.7 |
| 20260506134527 | 76 | 128 | 1.7 | 1.7 | 0.00 | 0.00 | 0.00 | 95 | 1005.7 |
| 20260506134024 | 76 | 138 | 1.7 | 1.7 | 0.00 | 0.00 | 0.00 | 95 | 1006.0 |
| 20260506133521 | 76 | 149 | 2.6 | 2.6 | 0.00 | 0.00 | 0.00 | 95 | 1006.0 |
| 20260506133018 | 76 | 149 | 2.6 | 2.6 | 0.00 | 0.00 | 0.00 | 95 | 1005.7 |
| 20260506132515 | 75 | 149 | 0.0 | 0.0 | 0.00 | 0.00 | 0.00 | 95 | 1005.7 |
| 20260506132012 | 75 | 149 | 0.0 | 0.0 | 0.00 | 0.00 | 0.00 | 95 | 1005.7 |
| 20260506131509 | 75 | 149 | 2.6 | 2.6 | 0.00 | 0.00 | 0.00 | 95 | 1005.7 |
| 20260506131006 | 76 | 149 | 0.0 | 0.0 | 0.00 | 0.00 | 0.00 | 95 | 1005.7 |
| 20260506130502 | 75 | 149 | 0.0 | 0.0 | 0.00 | 0.00 | 0.00 | 95 | 1006.0 |
| 20260506130000 | 75 | 149 | 0.0 | 0.0 | 0.00 | 0.00 | 0.00 | 95 | 1005.7 |
| 20260506125458 | 75 | 150 | 0.0 | 0.0 | 0.00 | 0.00 | 0.00 | 95 | 1006.0 |
| 20260506124955 | 75 | 150 | 0.0 | 0.0 | 0.00 | 0.00 | 0.00 | 94 | 1005.7 |
| 20260506124453 | 75 | 150 | 0.0 | 0.0 | 0.00 | 0.00 | 0.00 | 94 | 1005.7 |
| 20260506123951 | 75 | 150 | 0.0 | 0.0 | 0.00 | 0.00 | 0.00 | 94 | 1005.7 |
| 20260506123449 | 75 | 162 | 0.0 | 0.0 | 0.00 | 0.00 | 0.00 | 94 | 1005.7 |
| 20260506122946 | 75 | 162 | 0.0 | 0.0 | 0.00 | 0.00 | 0.00 | 94 | 1005.7 |
| 20260506122443 | 75 | 162 | 0.0 | 0.0 | 0.00 | 0.00 | 0.00 | 94 | 1005.7 |
| 20260506121941 | 75 | 162 | 0.0 | 0.0 | 0.00 | 0.00 | 0.00 | 94 | 1005.7 |
| 20260506121438 | 75 | 162 | 0.0 | 0.0 | 0.00 | 0.00 | 0.00 | 94 | 1005.7 |
| 20260506120934 | 75 | 162 | 0.0 | 0.0 | 0.00 | 0.00 | 0.00 | 94 | 1005.7 |
| 20260506120432 | 75 | 162 | 0.0 | 0.0 | 0.00 | 0.00 | 0.00 | 94 | 1005.7 |
| 20260506115929 | 75 | 162 | 0.0 | 0.0 | 0.00 | 0.00 | 0.00 | 94 | 1006.0 |
| 20260506115427 | 75 | 162 | 0.0 | 0.0 | 0.00 | 0.00 | 0.00 | 93 | 1005.7 |
| 20260506114925 | 75 | 162 | 0.0 | 0.0 | 0.00 | 0.00 | 0.00 | 93 | 1005.7 |
| 20260506114423 | 75 | 162 | 0.0 | 0.0 | 0.00 | 0.00 | 0.00 | 93 | 1005.7 |
| 20260506113921 | 75 | 162 | 0.0 | 0.0 | 0.00 | 0.00 | 0.00 | 93 | 1005.7 |
| 20260506113419 | 75 | 162 | 0.0 | 0.0 | 0.00 | 0.00 | 0.00 | 93 | 1005.7 |
| 20260506112915 | 75 | 162 | 0.0 | 0.0 | 0.00 | 0.00 | 0.00 | 93 | 1005.7 |
| 20260506112413 | 75 | 162 | 0.0 | 0.0 | 0.00 | 0.00 | 0.00 | 93 | 1005.3 |
| 20260506111910 | 75 | 162 | 0.0 | 0.0 | 0.00 | 0.00 | 0.00 | 93 | 1005.3 |
| 20260506111408 | 75 | 162 | 2.6 | 2.6 | 0.00 | 0.00 | 0.00 | 93 | 1005.0 |
| 20260506110905 | 76 | 162 | 0.0 | 0.0 | 0.00 | 0.00 | 0.00 | 93 | 1005.3 |
| 20260506110402 | 76 | 162 | 1.7 | 1.7 | 0.00 | 0.00 | 0.00 | 93 | 1005.3 |
| 20260506105858 | 76 | 162 | 2.6 | 2.6 | 0.00 | 0.00 | 0.00 | 93 | 1005.0 |
| 20260506105355 | 76 | 120 | 4.3 | 5.2 | 0.00 | 0.00 | 0.00 | 93 | 1005.0 |
| 20260506104852 | 76 | 167 | 2.6 | 2.6 | 0.00 | 0.00 | 0.00 | 93 | 1005.3 |
| 20260506104350 | 76 | 128 | 1.7 | 1.7 | 0.00 | 0.00 | 0.00 | 93 | 1005.0 |
| 20260506103848 | 76 | 128 | 4.3 | 4.3 | 0.00 | 0.00 | 0.00 | 93 | 1005.0 |
| 20260506103345 | 76 | 128 | 0.0 | 0.0 | 0.00 | 0.00 | 0.00 | 93 | 1005.0 |
| 20260506102842 | 76 | 128 | 3.5 | 3.5 | 0.00 | 0.00 | 0.00 | 93 | 1005.0 |
| 20260506102340 | 76 | 128 | 2.6 | 2.6 | 0.00 | 0.00 | 0.00 | 93 | 1004.7 |
| 20260506101837 | 76 | 128 | 2.6 | 2.6 | 0.00 | 0.00 | 0.00 | 93 | 1004.7 |
| 20260506101333 | 76 | 128 | 1.7 | 1.7 | 0.00 | 0.00 | 0.00 | 93 | 1005.0 |
| 20260506100831 | 76 | 128 | 1.7 | 1.7 | 0.00 | 0.00 | 0.00 | 93 | 1004.7 |
| 20260506100329 | 76 | 192 | 2.6 | 2.6 | 0.00 | 0.00 | 0.00 | 93 | 1004.7 |
| 20260506095827 | 76 | 161 | 3.5 | 3.5 | 0.00 | 0.00 | 0.00 | 93 | 1004.7 |
| 20260506095324 | 76 | 161 | 2.6 | 2.6 | 0.00 | 0.00 | 0.00 | 93 | 1004.3 |
| 20260506094821 | 76 | 167 | 2.6 | 2.6 | 0.00 | 0.00 | 0.00 | 93 | 1004.3 |
| 20260506094320 | 76 | 135 | 7.0 | 7.0 | 0.00 | 0.00 | 0.00 | 93 | 1004.0 |
| 20260506093817 | 76 | 156 | 2.6 | 2.6 | 0.00 | 0.00 | 0.00 | 93 | 1004.0 |
| 20260506093314 | 76 | 156 | 2.6 | 2.6 | 0.00 | 0.00 | 0.00 | 93 | 1004.3 |
| 20260506092812 | 76 | 180 | 2.6 | 2.6 | 0.00 | 0.00 | 0.00 | 93 | 1004.3 |
| 20260506092309 | 76 | 174 | 4.3 | 4.3 | 0.00 | 0.00 | 0.00 | 93 | 1004.0 |
| 20260506091807 | 76 | 156 | 5.2 | 5.2 | 0.00 | 0.00 | 0.00 | 93 | 1004.3 |
| 20260506091304 | 76 | 115 | 8.7 | 8.7 | 0.00 | 0.00 | 0.00 | 93 | 1004.0 |
| 20260506090802 | 76 | 175 | 5.2 | 5.2 | 0.00 | 0.00 | 0.00 | 93 | 1004.7 |
| 20260506090259 | 76 | 163 | 4.3 | 4.3 | 0.00 | 0.00 | 0.00 | 93 | 1004.3 |
| 20260506085755 | 76 | 121 | 3.5 | 3.5 | 0.00 | 0.00 | 0.00 | 93 | 1004.3 |
| 20260506085251 | 76 | 174 | 3.5 | 3.5 | 0.00 | 0.00 | 0.00 | 93 | 1004.3 |
| 20260506084748 | 76 | 171 | 3.5 | 3.5 | 0.00 | 0.00 | 0.00 | 93 | 1004.3 |
| 20260506084244 | 76 | 150 | 7.8 | 7.8 | 0.00 | 0.00 | 0.00 | 93 | 1004.0 |
| 20260506083742 | 76 | 145 | 5.2 | 5.2 | 0.00 | 0.00 | 0.00 | 93 | 1004.0 |
| 20260506083239 | 76 | 169 | 5.2 | 6.1 | 0.00 | 0.00 | 0.00 | 93 | 1004.0 |
| 20260506082737 | 75 | 163 | 2.6 | 2.6 | 0.00 | 0.00 | 0.00 | 93 | 1004.3 |
| 20260506082232 | 75 | 163 | 7.8 | 8.7 | 0.00 | 0.00 | 0.00 | 93 | 1004.0 |
| 20260506081730 | 75 | 184 | 7.0 | 7.8 | 0.00 | 0.00 | 0.00 | 93 | 1004.3 |
| 20260506081227 | 75 | 138 | 6.1 | 6.1 | 0.00 | 0.00 | 0.00 | 94 | 1004.3 |
| 20260506080725 | 75 | 149 | 3.5 | 3.5 | 0.00 | 0.00 | 0.00 | 94 | 1004.0 |
| 20260506080221 | 75 | 128 | 7.0 | 7.0 | 0.00 | 0.00 | 0.00 | 94 | 1004.0 |
| 20260506073205 | 75 | 139 | 3.5 | 3.5 | 0.00 | 0.00 | 0.00 | 94 | 1004.3 |
| 20260506072702 | 75 | 146 | 6.1 | 6.1 | 0.00 | 0.00 | 0.00 | 94 | 1004.3 |
| 20260506072200 | 75 | 146 | 8.7 | 9.6 | 0.00 | 0.00 | 0.00 | 94 | 1004.3 |
| 20260506071657 | 75 | 108 | 4.3 | 5.2 | 0.00 | 0.00 | 0.00 | 94 | 1004.7 |
| 20260506071155 | 75 | 152 | 5.2 | 6.1 | 0.00 | 0.00 | 0.00 | 94 | 1004.7 |
| 20260506070651 | 75 | 192 | 4.3 | 5.2 | 0.00 | 0.00 | 0.00 | 94 | 1004.7 |
| 20260506070148 | 75 | 127 | 4.3 | 4.3 | 0.00 | 0.00 | 0.00 | 94 | 1005.0 |
| 20260506062126 | 75 | 144 | 7.0 | 7.8 | 0.00 | 0.00 | 0.00 | 94 | 1005.0 |
| 20260506061621 | 75 | 130 | 6.1 | 7.0 | 0.00 | 0.00 | 0.00 | 94 | 1005.0 |
| 20260506061120 | 75 | 130 | 6.1 | 7.0 | 0.00 | 0.00 | 0.00 | 93 | 1004.7 |
| 20260506060618 | 75 | 127 | 6.1 | 7.0 | 0.00 | 0.00 | 0.00 | 93 | 1005.0 |
| 20260506060114 | 75 | 144 | 6.1 | 6.1 | 0.00 | 0.00 | 0.00 | 93 | 1005.0 |
| 20260506051046 | 76 | 137 | 7.8 | 7.8 | 0.00 | 0.00 | 0.00 | 92 | 1004.7 |
| 20260506050544 | 76 | 130 | 7.0 | 7.0 | 0.00 | 0.00 | 0.00 | 92 | 1004.7 |
| 20260506045034 | 76 | 145 | 7.8 | 7.8 | 0.00 | 0.00 | 0.00 | 92 | 1005.0 |
| 20260506044532 | 76 | 115 | 3.5 | 3.5 | 0.00 | 0.00 | 0.00 | 92 | 1005.0 |
| 20260506044029 | 76 | 161 | 8.7 | 8.7 | 0.00 | 0.00 | 0.00 | 92 | 1005.0 |
| 20260506043526 | 76 | 120 | 4.3 | 5.2 | 0.00 | 0.00 | 0.00 | 92 | 1004.7 |
| 20260506043025 | 76 | 147 | 5.2 | 6.1 | 0.00 | 0.00 | 0.00 | 92 | 1004.7 |
| 20260506042523 | 76 | 125 | 9.6 | 10.4 | 0.00 | 0.00 | 0.00 | 92 | 1004.7 |
| 20260506042021 | 76 | 126 | 6.1 | 7.0 | 0.00 | 0.00 | 0.00 | 91 | 1005.0 |
| 20260506041519 | 76 | 124 | 3.5 | 3.5 | 0.00 | 0.00 | 0.00 | 91 | 1005.0 |
| 20260506041016 | 76 | 131 | 4.3 | 5.2 | 0.00 | 0.00 | 0.00 | 91 | 1004.7 |
| 20260506040514 | 76 | 127 | 8.7 | 8.7 | 0.00 | 0.00 | 0.00 | 91 | 1004.7 |
| 20260506040009 | 76 | 126 | 5.2 | 6.1 | 0.00 | 0.00 | 0.00 | 91 | 1004.3 |
| 20260506035506 | 76 | 126 | 3.5 | 3.5 | 0.00 | 0.00 | 0.00 | 91 | 1004.3 |
| 20260506035003 | 77 | 150 | 7.0 | 7.8 | 0.00 | 0.00 | 0.00 | 91 | 1004.0 |
| 20260506034501 | 77 | 134 | 6.1 | 7.0 | 0.00 | 0.00 | 0.00 | 90 | 1004.0 |
| 20260506033957 | 77 | 147 | 12.2 | 13.9 | 0.00 | 0.00 | 0.00 | 90 | 1004.0 |
| 20260506033455 | 77 | 133 | 6.1 | 6.1 | 0.00 | 0.00 | 0.00 | 90 | 1004.0 |
| 20260506032951 | 77 | 138 | 7.8 | 7.8 | 0.00 | 0.00 | 0.00 | 90 | 1004.0 |
| 20260506032449 | 77 | 138 | 5.2 | 5.2 | 0.00 | 0.00 | 0.00 | 90 | 1004.3 |
| 20260506031945 | 77 | 133 | 6.1 | 7.0 | 0.00 | 0.00 | 0.00 | 90 | 1003.6 |
| 20260506031443 | 77 | 132 | 7.8 | 8.7 | 0.00 | 0.00 | 0.00 | 90 | 1004.0 |
| 20260506030940 | 77 | 128 | 7.8 | 7.8 | 0.00 | 0.00 | 0.00 | 89 | 1003.6 |
| 20260506030438 | 77 | 131 | 9.6 | 10.4 | 0.00 | 0.00 | 0.00 | 89 | 1004.0 |
| 20260506025934 | 77 | 124 | 5.2 | 6.1 | 0.00 | 0.00 | 0.00 | 89 | 1004.0 |
| 20260506025431 | 77 | 124 | 5.2 | 5.2 | 0.00 | 0.00 | 0.00 | 89 | 1004.0 |
| 20260506024928 | 77 | 155 | 7.8 | 7.8 | 0.00 | 0.00 | 0.00 | 88 | 1003.6 |
| 20260506024425 | 78 | 130 | 6.1 | 6.1 | 0.00 | 0.00 | 0.00 | 88 | 1003.6 |
| 20260506023921 | 78 | 120 | 6.1 | 7.0 | 0.00 | 0.00 | 0.00 | 88 | 1003.6 |
| 20260506023418 | 78 | 134 | 7.8 | 7.8 | 0.00 | 0.00 | 0.00 | 87 | 1003.6 |
| 20260506022914 | 78 | 138 | 7.8 | 7.8 | 0.00 | 0.00 | 0.00 | 87 | 1003.3 |
| 20260506022412 | 78 | 131 | 4.3 | 4.3 | 0.00 | 0.00 | 0.00 | 87 | 1003.6 |
| 20260506021910 | 78 | 144 | 5.2 | 5.2 | 0.00 | 0.00 | 0.00 | 86 | 1003.3 |
| 20260506021407 | 78 | 132 | 3.5 | 3.5 | 0.00 | 0.00 | 0.00 | 86 | 1003.6 |
| 20260506020903 | 78 | 157 | 5.2 | 5.2 | 0.00 | 0.00 | 0.00 | 86 | 1003.6 |
| 20260506020402 | 78 | 144 | 7.8 | 7.8 | 0.00 | 0.00 | 0.00 | 87 | 1003.3 |
| 20260506015859 | 78 | 162 | 6.1 | 7.0 | 0.00 | 0.00 | 0.00 | 86 | 1003.3 |
| 20260506015356 | 78 | 126 | 7.0 | 7.8 | 0.00 | 0.00 | 0.00 | 87 | 1003.3 |
| 20260506014853 | 78 | 147 | 5.2 | 5.2 | 0.00 | 0.00 | 0.00 | 86 | 1003.3 |
| 20260506014350 | 78 | 128 | 5.2 | 6.1 | 0.00 | 0.00 | 0.00 | 86 | 1003.3 |
| 20260506013846 | 78 | 125 | 7.0 | 7.8 | 0.00 | 0.00 | 0.00 | 86 | 1003.3 |
| 20260506013344 | 78 | 132 | 3.5 | 3.5 | 0.00 | 0.00 | 0.00 | 86 | 1003.3 |
| 20260506012840 | 78 | 134 | 3.5 | 3.5 | 0.00 | 0.00 | 0.00 | 86 | 1003.0 |
| 20260506012337 | 78 | 126 | 6.1 | 6.1 | 0.00 | 0.00 | 0.00 | 86 | 1003.0 |
| 20260506011834 | 78 | 147 | 11.3 | 12.2 | 0.00 | 0.00 | 0.00 | 86 | 1003.0 |
| 20260506011331 | 79 | 113 | 6.1 | 6.1 | 0.00 | 0.00 | 0.00 | 85 | 1003.0 |
| 20260506010829 | 79 | 116 | 4.3 | 5.2 | 0.00 | 0.00 | 0.00 | 85 | 1002.6 |
| 20260506010326 | 79 | 126 | 3.5 | 3.5 | 0.00 | 0.00 | 0.00 | 85 | 1002.3 |
| 20260506005823 | 79 | 132 | 7.0 | 7.8 | 0.00 | 0.00 | 0.00 | 84 | 1002.6 |
| 20260506005320 | 79 | 155 | 9.6 | 10.4 | 0.00 | 0.00 | 0.00 | 84 | 1002.6 |
| 20260506004816 | 80 | 138 | 7.0 | 7.0 | 0.00 | 0.00 | 0.00 | 84 | 1002.6 |
| 20260506004314 | 80 | 133 | 5.2 | 6.1 | 0.00 | 0.00 | 0.00 | 84 | 1002.3 |
| 20260506003809 | 80 | 132 | 5.2 | 5.2 | 0.00 | 0.00 | 0.00 | 83 | 1001.9 |
| 20260506003306 | 80 | 120 | 7.8 | 7.8 | 0.00 | 0.00 | 0.00 | 83 | 1001.9 |
| 20260506002802 | 80 | 126 | 8.7 | 9.6 | 0.00 | 0.00 | 0.00 | 82 | 1002.3 |
| 20260506002259 | 80 | 126 | 7.0 | 7.8 | 0.00 | 0.00 | 0.00 | 82 | 1002.3 |
| 20260506001754 | 80 | 156 | 8.7 | 9.6 | 0.00 | 0.00 | 0.00 | 82 | 1002.3 |
| 20260506001252 | 81 | 127 | 10.4 | 12.2 | 0.00 | 0.00 | 0.00 | 82 | 1002.3 |
| 20260506000749 | 81 | 126 | 11.3 | 13.0 | 0.00 | 0.00 | 0.00 | 82 | 1002.3 |
| 20260506000247 | 81 | 128 | 7.0 | 7.8 | 0.00 | 0.00 | 0.00 | 81 | 1002.3 |
| 20260505235743 | 80 | 128 | 5.2 | 6.1 | 0.00 | 0.00 | 0.00 | 81 | 1002.3 |
| 20260505235241 | 80 | 121 | 8.7 | 8.7 | 0.00 | 0.00 | 0.00 | 81 | 1001.9 |
| 20260505234737 | 80 | 121 | 9.6 | 10.4 | 0.00 | 0.00 | 0.00 | 81 | 1002.3 |
| 20260505234235 | 81 | 138 | 7.0 | 7.8 | 0.00 | 0.00 | 0.00 | 80 | 1002.3 |
| 20260505233731 | 81 | 134 | 5.2 | 6.1 | 0.00 | 0.00 | 0.00 | 80 | 1002.3 |
| 20260505233230 | 81 | 144 | 6.1 | 7.0 | 0.00 | 0.00 | 0.00 | 80 | 1002.3 |
| 20260505232726 | 81 | 122 | 7.8 | 7.8 | 0.00 | 0.00 | 0.00 | 80 | 1002.3 |
| 20260505232224 | 81 | 128 | 6.1 | 7.0 | 0.00 | 0.00 | 0.00 | 80 | 1001.9 |
| 20260505231720 | 81 | 128 | 7.8 | 7.8 | 0.00 | 0.00 | 0.00 | 80 | 1001.9 |
| 20260505231220 | 81 | 132 | 8.7 | 8.7 | 0.00 | 0.00 | 0.00 | 80 | 1001.9 |
| 20260505230717 | 81 | 132 | 9.6 | 9.6 | 0.00 | 0.00 | 0.00 | 80 | 1001.9 |
| 20260505230214 | 82 | 133 | 7.8 | 7.8 | 0.00 | 0.00 | 0.00 | 80 | 1001.9 |
| 20260505225710 | 82 | 144 | 7.8 | 7.8 | 0.00 | 0.00 | 0.00 | 79 | 1002.3 |
| 20260505225207 | 82 | 156 | 7.0 | 7.8 | 0.00 | 0.00 | 0.00 | 79 | 1001.9 |
| 20260505224702 | 82 | 127 | 9.6 | 9.6 | 0.00 | 0.00 | 0.00 | 78 | 1001.9 |
| 20260505224201 | 83 | 114 | 10.4 | 10.4 | 0.00 | 0.00 | 0.00 | 76 | 1001.9 |
| 20260505223658 | 83 | 156 | 8.7 | 8.7 | 0.00 | 0.00 | 0.00 | 75 | 1001.9 |
| 20260505223153 | 83 | 180 | 10.4 | 12.2 | 0.00 | 0.00 | 0.00 | 74 | 1001.9 |
| 20260505222650 | 83 | 173 | 7.8 | 7.8 | 0.00 | 0.00 | 0.00 | 74 | 1002.3 |
| 20260505222146 | 84 | 146 | 7.0 | 7.8 | 0.00 | 0.00 | 0.00 | 74 | 1002.3 |
| 20260505221643 | 84 | 162 | 10.4 | 11.3 | 0.00 | 0.00 | 0.00 | 73 | 1002.3 |
| 20260505221140 | 83 | 150 | 8.7 | 8.7 | 0.00 | 0.00 | 0.00 | 75 | 1002.3 |
| 20260505220637 | 84 | 138 | 7.8 | 7.8 | 0.00 | 0.00 | 0.00 | 74 | 1002.3 |
| 20260505220135 | 84 | 168 | 7.8 | 8.7 | 0.00 | 0.00 | 0.00 | 74 | 1002.3 |
| 20260505215632 | 84 | 132 | 10.4 | 11.3 | 0.00 | 0.00 | 0.00 | 73 | 1001.9 |
| 20260505215130 | 85 | 132 | 10.4 | 12.2 | 0.00 | 0.00 | 0.00 | 71 | 1002.3 |
| 20260505214628 | 84 | 162 | 10.4 | 12.2 | 0.00 | 0.00 | 0.00 | 71 | 1002.3 |
| 20260505214125 | 84 | 156 | 6.1 | 7.0 | 0.00 | 0.00 | 0.00 | 75 | 1001.9 |
| 20260505213622 | 84 | 179 | 8.7 | 8.7 | 0.00 | 0.00 | 0.00 | 73 | 1002.3 |
| 20260505213119 | 85 | 174 | 7.8 | 7.8 | 0.00 | 0.00 | 0.00 | 71 | 1002.3 |
| 20260505212615 | 85 | 146 | 5.2 | 5.2 | 0.00 | 0.00 | 0.00 | 74 | 1002.3 |
| 20260505212113 | 85 | 191 | 7.0 | 7.8 | 0.00 | 0.00 | 0.00 | 71 | 1002.3 |
| 20260505211609 | 84 | 174 | 8.7 | 8.7 | 0.00 | 0.00 | 0.00 | 73 | 1002.3 |
| 20260505211107 | 84 | 146 | 6.1 | 7.0 | 0.00 | 0.00 | 0.00 | 73 | 1002.3 |
| 20260505210603 | 84 | 190 | 7.8 | 8.7 | 0.00 | 0.00 | 0.00 | 73 | 1002.6 |
| 20260505210100 | 85 | 198 | 5.2 | 5.2 | 0.00 | 0.00 | 0.00 | 71 | 1002.6 |
| 20260505205558 | 85 | 192 | 6.1 | 7.0 | 0.00 | 0.00 | 0.00 | 71 | 1003.0 |
| 20260505205055 | 84 | 220 | 6.1 | 7.0 | 0.00 | 0.00 | 0.00 | 74 | 1003.0 |
| 20260505204552 | 84 | 207 | 7.8 | 7.8 | 0.00 | 0.00 | 0.00 | 73 | 1003.3 |
| 20260505204050 | 84 | 214 | 12.2 | 13.9 | 0.00 | 0.00 | 0.00 | 74 | 1003.0 |
| 20260505203546 | 84 | 146 | 7.8 | 7.8 | 0.00 | 0.00 | 0.00 | 74 | 1003.3 |
| 20260505203043 | 85 | 264 | 6.1 | 7.0 | 0.00 | 0.00 | 0.00 | 72 | 1003.3 |
| 20260505202539 | 85 | 198 | 8.7 | 9.6 | 0.00 | 0.00 | 0.00 | 72 | 1003.0 |
| 20260505202035 | 86 | 150 | 3.5 | 3.5 | 0.00 | 0.00 | 0.00 | 71 | 1003.3 |
| 20260505201532 | 85 | 181 | 2.6 | 2.6 | 0.00 | 0.00 | 0.00 | 72 | 1003.3 |
| 20260505201030 | 84 | 144 | 3.5 | 3.5 | 0.00 | 0.00 | 0.00 | 73 | 1003.6 |
| 20260505200528 | 83 | 134 | 3.5 | 3.5 | 0.00 | 0.00 | 0.00 | 77 | 1004.0 |
| 20260505200024 | 84 | 156 | 4.3 | 5.2 | 0.00 | 0.00 | 0.00 | 75 | 1004.0 |
| 20260505195520 | 84 | 162 | 2.6 | 2.6 | 0.00 | 0.00 | 0.00 | 73 | 1003.6 |
| 20260505195018 | 84 | 216 | 5.2 | 6.1 | 0.00 | 0.00 | 0.00 | 72 | 1004.0 |
| 20260505194515 | 84 | 138 | 9.6 | 9.6 | 0.00 | 0.00 | 0.00 | 73 | 1003.6 |
| 20260505194010 | 83 | 173 | 4.3 | 4.3 | 0.00 | 0.00 | 0.00 | 75 | 1004.0 |
| 20260505193508 | 84 | 150 | 9.6 | 10.4 | 0.00 | 0.00 | 0.00 | 73 | 1004.0 |
| 20260505193005 | 83 | 182 | 4.3 | 4.3 | 0.00 | 0.00 | 0.00 | 75 | 1004.0 |
| 20260505192503 | 83 | 178 | 7.8 | 8.7 | 0.00 | 0.00 | 0.00 | 74 | 1004.0 |
| 20260505192001 | 83 | 186 | 6.1 | 7.0 | 0.00 | 0.00 | 0.00 | 75 | 1004.0 |
| 20260505191459 | 82 | 150 | 7.0 | 7.8 | 0.00 | 0.00 | 0.00 | 77 | 1004.3 |
| 20260505190956 | 82 | 180 | 3.5 | 3.5 | 0.00 | 0.00 | 0.00 | 77 | 1004.0 |
| 20260505190450 | 82 | 198 | 7.8 | 7.8 | 0.00 | 0.00 | 0.00 | 77 | 1004.3 |
| 20260505185946 | 82 | 138 | 2.6 | 2.6 | 0.00 | 0.00 | 0.00 | 78 | 1004.3 |
| 20260505185444 | 82 | 168 | 4.3 | 5.2 | 0.00 | 0.00 | 0.00 | 77 | 1004.0 |
| 20260505184940 | 82 | 222 | 6.1 | 7.0 | 0.00 | 0.00 | 0.00 | 76 | 1004.3 |
| 20260505184437 | 81 | 156 | 12.2 | 13.9 | 0.00 | 0.00 | 0.00 | 76 | 1004.3 |
| 20260505183933 | 81 | 177 | 7.0 | 7.8 | 0.00 | 0.00 | 0.00 | 78 | 1004.3 |
| 20260505183430 | 81 | 165 | 3.5 | 3.5 | 0.00 | 0.00 | 0.00 | 78 | 1004.7 |
| 20260505182927 | 81 | 168 | 6.1 | 7.0 | 0.00 | 0.00 | 0.00 | 78 | 1004.7 |
| 20260505182424 | 80 | 146 | 6.1 | 6.1 | 0.00 | 0.00 | 0.00 | 80 | 1004.3 |
| 20260505181920 | 80 | 164 | 10.4 | 11.3 | 0.00 | 0.00 | 0.00 | 80 | 1004.7 |
| 20260505181418 | 80 | 150 | 4.3 | 4.3 | 0.00 | 0.00 | 0.00 | 81 | 1004.7 |
| 20260505180914 | 80 | 156 | 7.0 | 7.8 | 0.00 | 0.00 | 0.00 | 80 | 1004.3 |
| 20260505180411 | 81 | 152 | 9.6 | 10.4 | 0.00 | 0.00 | 0.00 | 80 | 1004.7 |
| 20260505175908 | 80 | 204 | 9.6 | 10.4 | 0.00 | 0.00 | 0.00 | 80 | 1004.7 |
| 20260505175404 | 79 | 156 | 9.6 | 10.4 | 0.00 | 0.00 | 0.00 | 81 | 1004.7 |
| 20260505174900 | 79 | 184 | 4.3 | 4.3 | 0.00 | 0.00 | 0.00 | 81 | 1005.0 |
| 20260505174358 | 80 | 181 | 7.0 | 7.8 | 0.00 | 0.00 | 0.00 | 80 | 1004.7 |
| 20260505173854 | 80 | 195 | 4.3 | 4.3 | 0.00 | 0.00 | 0.00 | 80 | 1005.0 |
| 20260505173350 | 80 | 168 | 6.1 | 6.1 | 0.00 | 0.00 | 0.00 | 80 | 1004.7 |
| 20260505172848 | 80 | 171 | 9.6 | 11.3 | 0.00 | 0.00 | 0.00 | 80 | 1005.0 |
| 20260505172345 | 79 | 186 | 7.0 | 7.0 | 0.00 | 0.00 | 0.00 | 81 | 1005.0 |
| 20260505171845 | 79 | 180 | 10.4 | 12.2 | 0.00 | 0.00 | 0.00 | 81 | 1005.0 |
| 20260505171342 | 79 | 188 | 7.8 | 7.8 | 0.00 | 0.00 | 0.00 | 81 | 1004.7 |
| 20260505170838 | 79 | 174 | 7.8 | 7.8 | 0.00 | 0.00 | 0.00 | 81 | 1005.0 |
| 20260505170335 | 79 | 168 | 5.2 | 5.2 | 0.00 | 0.00 | 0.00 | 81 | 1005.0 |
| 20260505165831 | 79 | 174 | 3.5 | 3.5 | 0.00 | 0.00 | 0.00 | 82 | 1005.0 |
| 20260505165326 | 79 | 180 | 6.1 | 7.0 | 0.00 | 0.00 | 0.00 | 82 | 1005.0 |
| 20260505164822 | 79 | 186 | 6.1 | 6.1 | 0.00 | 0.00 | 0.00 | 82 | 1005.0 |
| 20260505164319 | 79 | 234 | 4.3 | 5.2 | 0.00 | 0.00 | 0.00 | 82 | 1005.3 |
| 20260505163818 | 78 | 138 | 9.6 | 9.6 | 0.00 | 0.00 | 0.00 | 82 | 1005.3 |
| 20260505163316 | 78 | 163 | 2.6 | 2.6 | 0.00 | 0.00 | 0.00 | 82 | 1005.0 |
| 20260505162814 | 78 | 300 | 5.2 | 6.1 | 0.00 | 0.00 | 0.00 | 83 | 1005.0 |
| 20260505162310 | 78 | 222 | 6.1 | 6.1 | 0.00 | 0.00 | 0.00 | 85 | 1005.0 |
| 20260505161807 | 78 | 174 | 7.8 | 8.7 | 0.00 | 0.00 | 0.00 | 85 | 1005.0 |
| 20260505161304 | 77 | 162 | 5.2 | 5.2 | 0.00 | 0.00 | 0.00 | 86 | 1005.0 |
| 20260505160802 | 77 | 180 | 5.2 | 5.2 | 0.00 | 0.00 | 0.00 | 87 | 1005.3 |
| 20260505160259 | 77 | 150 | 6.1 | 6.1 | 0.00 | 0.00 | 0.00 | 87 | 1005.0 |
| 20260505153238 | 75 | 154 | 5.2 | 5.2 | 0.00 | 0.00 | 0.00 | 90 | 1005.0 |
| 20260505152735 | 75 | 167 | 6.1 | 6.1 | 0.00 | 0.00 | 0.00 | 90 | 1005.0 |
| 20260505152231 | 75 | 156 | 5.2 | 5.2 | 0.00 | 0.00 | 0.00 | 90 | 1005.0 |
| 20260505151726 | 75 | 174 | 6.1 | 7.0 | 0.00 | 0.00 | 0.00 | 90 | 1005.0 |
| 20260505151224 | 75 | 163 | 5.2 | 6.1 | 0.00 | 0.00 | 0.00 | 90 | 1005.0 |
| 20260505150720 | 75 | 153 | 7.0 | 7.8 | 0.00 | 0.00 | 0.00 | 91 | 1005.0 |
| 20260505150217 | 74 | 167 | 8.7 | 8.7 | 0.00 | 0.00 | 0.00 | 91 | 1005.0 |